• In Hungary
  • List of Countries
  • For 7 days
  • Water Temperature
  • Satellite Maps
  • Weather Map
  • News
  • Weather Widgets
  • user-avatar
    Login

    Hourly Weather Pervomais'ke

    Today, 20 October, Saturday

    Time Temperature Precipitation Wind Pressure Humidity
    00:00 +15°C° 0 mm 2 mps 745 mmHg 49%
    01:00 +15°C° 0 mm 2 mps 745 mmHg 51%
    02:00 +15°C° 0 mm 2 mps 745 mmHg 53%
    03:00 +14°C° 0 mm 2 mps 745 mmHg 54%
    04:00 +14°C° 0 mm 2 mps 745 mmHg 56%
    05:00 +14°C° 0 mm 2 mps 745 mmHg 57%
    06:00 +14°C° 0 mm 2 mps 745 mmHg 57%
    07:00 +14°C° 0 mm 3 mps 745 mmHg 57%
    08:00 +14°C° 0 mm 3 mps 746 mmHg 58%
    09:00 +17°C° 0 mm 3 mps 746 mmHg 54%
    10:00 +18°C° 0 mm 4 mps 746 mmHg 50%
    11:00 +20°C° 0 mm 4 mps 746 mmHg 46%
    12:00 +20°C° 0 mm 4 mps 746 mmHg 46%
    13:00 +21°C° 0 mm 4 mps 746 mmHg 45%
    14:00 +21°C° 0 mm 5 mps 746 mmHg 44%
    15:00 +20°C° 0 mm 4 mps 746 mmHg 48%
    16:00 +19°C° 0 mm 4 mps 746 mmHg 52%
    17:00 +18°C° 0 mm 3 mps 746 mmHg 56%
    18:00 +17°C° 0 mm 3 mps 746 mmHg 60%
    19:00 +17°C° 0 mm 3 mps 746 mmHg 64%
    20:00 +16°C° 0 mm 3 mps 746 mmHg 67%
    21:00 +14°C° 0 mm 3 mps 746 mmHg 70%
    22:00 +14°C° 0 mm 3 mps 746 mmHg 72%
    23:00 +14°C° 0 mm 3 mps 746 mmHg 74%

    Tomorrow, 21 October, Sunday

    Time Temperature Precipitation Wind Pressure Humidity
    00:00 +13°C° 0 mm 3 mps 746 mmHg 77%
    01:00 +13°C° 0 mm 3 mps 746 mmHg 80%
    02:00 +12°C° 0 mm 3 mps 746 mmHg 82%
    03:00 +12°C° 0 mm 3 mps 745 mmHg 83%
    04:00 +12°C° 0 mm 3 mps 745 mmHg 84%
    05:00 +12°C° 0 mm 3 mps 745 mmHg 85%
    06:00 +12°C° 0 mm 4 mps 746 mmHg 83%
    07:00 +12°C° 0 mm 4 mps 746 mmHg 81%
    08:00 +12°C° 0 mm 4 mps 746 mmHg 79%
    09:00 +14°C° 0 mm 4 mps 746 mmHg 73%
    10:00 +15°C° 0 mm 5 mps 747 mmHg 67%
    11:00 +16°C° 0 mm 5 mps 747 mmHg 62%
    12:00 +17°C° 0 mm 5 mps 747 mmHg 59%
    13:00 +17°C° 0 mm 5 mps 747 mmHg 56%
    14:00 +19°C° 0 mm 5 mps 746 mmHg 54%
    15:00 +18°C° 0 mm 4 mps 747 mmHg 56%
    16:00 +17°C° 0 mm 4 mps 747 mmHg 58%
    17:00 +15°C° 0 mm 4 mps 747 mmHg 61%
    18:00 +14°C° 0 mm 4 mps 747 mmHg 64%
    19:00 +14°C° 0 mm 4 mps 748 mmHg 66%
    20:00 +13°C° 0 mm 4 mps 748 mmHg 69%
    21:00 +12°C° 0 mm 4 mps 748 mmHg 70%
    22:00 +12°C° 0 mm 4 mps 748 mmHg 71%
    23:00 +11°C° 0 mm 4 mps 748 mmHg 72%

    Day after tomorrow, 22 October, Monday

    Time Temperature Precipitation Wind Pressure Humidity
    00:00 +11°C° 0 mm 4 mps 748 mmHg 73%
    01:00 +10°C° 0 mm 4 mps 748 mmHg 74%
    02:00 +10°C° 0 mm 4 mps 748 mmHg 74%
    03:00 +8°C° 0 mm 4 mps 748 mmHg 75%
    04:00 +8°C° 0 mm 4 mps 748 mmHg 76%
    05:00 +8°C° 0 mm 4 mps 748 mmHg 77%
    06:00 +8°C° 0 mm 4 mps 748 mmHg 75%
    07:00 +8°C° 0 mm 4 mps 748 mmHg 74%
    08:00 +8°C° 0 mm 4 mps 748 mmHg 72%
    09:00 +11°C° 0 mm 4 mps 748 mmHg 67%
    10:00 +12°C° 0 mm 4 mps 748 mmHg 62%
    11:00 +14°C° 0 mm 4 mps 748 mmHg 57%
    12:00 +15°C° 0 mm 4 mps 748 mmHg 55%
    13:00 +17°C° 0 mm 4 mps 748 mmHg 53%
    14:00 +17°C° 0 mm 3 mps 747 mmHg 51%
    15:00 +16°C° 0 mm 3 mps 747 mmHg 54%
    16:00 +14°C° 0 mm 3 mps 747 mmHg 56%
    17:00 +14°C° 0 mm 2 mps 747 mmHg 59%
    18:00 +14°C° 0 mm 2 mps 747 mmHg 62%
    19:00 +13°C° 0 mm 2 mps 747 mmHg 65%
    20:00 +12°C° 0 mm 2 mps 747 mmHg 68%
    21:00 +10°C° 0 mm 2 mps 747 mmHg 70%
    22:00 +10°C° 0 mm 2 mps 747 mmHg 72%
    23:00 +9°C° 0 mm 2 mps 747 mmHg 73%

    23 October, Tuesday

    Time Temperature Precipitation Wind Pressure Humidity
    00:00 +9°C° 0 mm 2 mps 746 mmHg 74%
    01:00 +9°C° 0 mm 2 mps 746 mmHg 75%
    02:00 +9°C° 0 mm 1 mps 746 mmHg 76%
    03:00 +9°C° 0 mm 1 mps 746 mmHg 76%
    04:00 +8°C° 0 mm 1 mps 746 mmHg 76%
    05:00 +8°C° 0 mm 1 mps 746 mmHg 77%
    06:00 +8°C° 0 mm 1 mps 746 mmHg 73%
    07:00 +9°C° 0 mm 1 mps 746 mmHg 69%
    08:00 +9°C° 0 mm 1 mps 746 mmHg 65%
    09:00 +10°C° 0 mm 2 mps 746 mmHg 58%
    10:00 +12°C° 0 mm 2 mps 746 mmHg 51%
    11:00 +13°C° 0 mm 3 mps 746 mmHg 44%
    12:00 +14°C° 0 mm 3 mps 746 mmHg 43%
    13:00 +14°C° 0 mm 3 mps 745 mmHg 42%
    14:00 +16°C° 0 mm 3 mps 745 mmHg 41%
    15:00 +14°C° 0 mm 3 mps 744 mmHg 45%
    16:00 +13°C° 0 mm 3 mps 744 mmHg 49%
    17:00 +13°C° 0 mm 2 mps 744 mmHg 52%
    18:00 +13°C° 0 mm 2 mps 744 mmHg 55%
    19:00 +12°C° 0 mm 2 mps 743 mmHg 58%
    20:00 +10°C° 0 mm 2 mps 743 mmHg 61%
    21:00 +11°C° 0 mm 1 mps 743 mmHg 62%
    22:00 +11°C° 0 mm 1 mps 742 mmHg 63%
    23:00 +11°C° 0 mm 1 mps 742 mmHg 63%

    24 October, Wednesday

    Time Temperature Precipitation Wind Pressure Humidity
    00:00 +10°C° 0 mm 1 mps 741 mmHg 65%
    01:00 +9°C° 0 mm 2 mps 740 mmHg 67%
    02:00 +9°C° 0 mm 2 mps 740 mmHg 68%
    03:00 +8°C° 0 mm 3 mps 739 mmHg 69%
    04:00 +7°C° 0 mm 4 mps 738 mmHg 69%
    05:00 +7°C° 0 mm 4 mps 737 mmHg 70%
    06:00 +8°C° 0 mm 5 mps 736 mmHg 67%
    07:00 +9°C° 0 mm 6 mps 735 mmHg 64%
    08:00 +9°C° 0 mm 6 mps 734 mmHg 62%
    09:00 +10°C° 0.1 mm 7 mps 734 mmHg 57%
    10:00 +11°C° 0.1 mm 7 mps 733 mmHg 53%
    11:00 +12°C° 0.1 mm 8 mps 732 mmHg 49%
    12:00 +11°C° 0.2 mm 7 mps 732 mmHg 53%
    13:00 +10°C° 0.2 mm 7 mps 731 mmHg 56%
    14:00 +10°C° 0.2 mm 6 mps 730 mmHg 60%
    15:00 +9°C° 0.2 mm 6 mps 730 mmHg 62%
    16:00 +9°C° 0.2 mm 5 mps 730 mmHg 64%
    17:00 +10°C° 0.2 mm 4 mps 730 mmHg 65%
    18:00 +8°C° 0.3 mm 5 mps 730 mmHg 63%
    19:00 +8°C° 0.3 mm 7 mps 730 mmHg 61%
    20:00 +6°C° 0.3 mm 8 mps 731 mmHg 59%
    21:00 +5°C° 0 mm 7 mps 731 mmHg 58%
    22:00 +4°C° 0 mm 7 mps 731 mmHg 57%
    23:00 +3°C° 0 mm 7 mps 731 mmHg 56%

    25 October, Thursday

    Time Temperature Precipitation Wind Pressure Humidity
    00:00 +3°C° 0 mm 7 mps 731 mmHg 60%
    01:00 +3°C° 0 mm 6 mps 732 mmHg 64%
    02:00 +3°C° 0 mm 6 mps 732 mmHg 68%
    03:00 +2°C° 0 mm 6 mps 732 mmHg 67%
    04:00 +2°C° 0 mm 7 mps 732 mmHg 67%
    05:00 +2°C° 0 mm 7 mps 733 mmHg 66%
    06:00 +2°C° 0 mm 7 mps 733 mmHg 65%
    07:00 +2°C° 0 mm 8 mps 733 mmHg 65%
    08:00 +2°C° 0 mm 8 mps 734 mmHg 64%
    09:00 +4°C° 0 mm 8 mps 734 mmHg 59%
    10:00 +3°C° 0 mm 9 mps 735 mmHg 55%
    11:00 +5°C° 0 mm 9 mps 735 mmHg 50%
    12:00 +5°C° 0 mm 9 mps 735 mmHg 50%
    13:00 +5°C° 0 mm 9 mps 736 mmHg 50%
    14:00 +5°C° 0 mm 9 mps 736 mmHg 50%
    15:00 +5°C° 0 mm 8 mps 736 mmHg 50%
    16:00 +5°C° 0 mm 7 mps 737 mmHg 50%
    17:00 +4°C° 0 mm 7 mps 737 mmHg 51%
    18:00 +4°C° 0 mm 6 mps 738 mmHg 52%
    19:00 +5°C° 0 mm 5 mps 738 mmHg 53%
    20:00 +5°C° 0 mm 3 mps 739 mmHg 54%
    21:00 +4°C° 0 mm 3 mps 739 mmHg 56%
    22:00 +4°C° 0 mm 3 mps 739 mmHg 58%
    23:00 +3°C° 0 mm 3 mps 739 mmHg 60%
    Show more